Orr, MN

9:55 AM CST on November 21, 2017 (GMT -0600)
Orr Regional

Weather History for KORB - June, 2013

Change the Weather History Date:

Saturday, June 29, 2013

  Actual Average Record
Temperature  
Mean Temperature 63 °F -  
Max Temperature 73 °F 72 °F 93 °F (2002)
Min Temperature 53 °F 50 °F 33 °F (2000)
Degree Days  
Heating Degree Days 2    
Growing Degree Days 13 (Base 50)    
Moisture  
Dew Point 53 °F    
Average Humidity 69    
Maximum Humidity 94    
Minimum Humidity 38    
Precipitation  
Precipitation 0.00 in - - ()
Sea Level Pressure  
Sea Level Pressure 29.94 in    
Wind  
Wind Speed 1 mph (NNE)    
Max Wind Speed 7 mph    
Max Gust Speed -    
Visibility 10 miles    
Events      
Averages and records for this station are not official NWS values.
T = Trace of Precipitation, MM = Missing Value Source: NWS Daily Summary

Daily Weather History Graph

Daily Weather History Graph

Search for Another Location

Airport or City:

Trip Planner

Search our weather history database for the weather conditions in past years. The results will help you decide how hot, cold, wet, or windy it might be!

Date:

Astronomy

Jun. 29, 2013 Rise Set
Actual Time 5:14 AM CDT 9:14 PM CDT
Civil Twilight 4:33 AM CDT 9:55 PM CDT
Nautical Twilight 3:36 AM CDT 10:52 PM CDT
Astronomical Twilight 2:01 AM CDT 12:26 AM CDT
Moon 12:11 AM CDT (6/29) 1:02 PM CDT (6/29)
Length of Visible Light 17h 22m
Length of Day
15h 59m
Waning Gibbous, 55% of the Moon is Illuminated
Jun 29
Waning Gibbous
Jun 29
Last Quarter
Jul 8
New
Jul 15
First Quarter
Jul 22
Full

Hourly Weather History & Observations

Time (CDT) Temp. Dew Point Humidity Pressure Visibility Wind Dir Wind Speed Gust Speed Precip Events Conditions
12:13 AM 62.6 °F 60.8 °F 94% 29.84 in 10.0 mi Calm Calm - N/A   Mostly Cloudy
12:33 AM 62.6 °F 60.8 °F 94% 29.84 in 10.0 mi Calm Calm - N/A   Overcast
12:53 AM 62.6 °F 60.8 °F 94% 29.84 in 10.0 mi Calm Calm - N/A   Overcast
1:13 AM 62.6 °F 59.0 °F 88% 29.84 in 10.0 mi Calm Calm - N/A   Overcast
1:33 AM 62.6 °F 59.0 °F 88% 29.84 in 10.0 mi Calm Calm - N/A   Overcast
1:53 AM 62.6 °F 59.0 °F 88% 29.84 in 10.0 mi Calm Calm - N/A   Overcast
2:13 AM 60.8 °F 57.2 °F 88% 29.84 in 10.0 mi Calm Calm - N/A   Overcast
2:33 AM 60.8 °F 57.2 °F 88% 29.84 in 10.0 mi Calm Calm - N/A   Overcast
2:53 AM 62.6 °F 57.2 °F 82% 29.84 in 10.0 mi NW 3.5 mph - N/A   Overcast
3:13 AM 62.6 °F 59.0 °F 88% 29.85 in 10.0 mi NW 4.6 mph - N/A   Scattered Clouds
3:34 AM 62.6 °F 59.0 °F 88% 29.85 in 10.0 mi NW 5.8 mph - N/A   Clear
3:53 AM 62.6 °F 59.0 °F 88% 29.85 in 10.0 mi NW 6.9 mph - N/A   Clear
4:13 AM 62.6 °F 59.0 °F 88% 29.85 in 10.0 mi NW 5.8 mph - N/A   Mostly Cloudy
4:33 AM 62.6 °F 59.0 °F 88% 29.86 in 10.0 mi NW 5.8 mph - N/A   Mostly Cloudy
4:53 AM 60.8 °F 59.0 °F 94% 29.86 in 10.0 mi NW 3.5 mph - N/A   Scattered Clouds
5:13 AM 60.8 °F 57.2 °F 88% 29.87 in 10.0 mi NW 3.5 mph - N/A   Clear
5:33 AM 60.8 °F 57.2 °F 88% 29.87 in 10.0 mi NW 3.5 mph - N/A   Clear
5:53 AM 60.8 °F 57.2 °F 88% 29.88 in 10.0 mi Calm Calm - N/A   Clear
6:13 AM 59.0 °F 57.2 °F 94% 29.88 in 10.0 mi Calm Calm - N/A   Clear
6:33 AM 59.0 °F 55.4 °F 88% 29.89 in 10.0 mi Calm Calm - N/A   Clear
6:53 AM 59.0 °F 55.4 °F 88% 29.89 in 10.0 mi Calm Calm - N/A   Clear
7:13 AM 60.8 °F 55.4 °F 82% 29.90 in 10.0 mi Calm Calm - N/A   Clear
7:33 AM 60.8 °F 55.4 °F 82% 29.90 in 10.0 mi Calm Calm - N/A   Clear
7:53 AM 60.8 °F 55.4 °F 82% 29.91 in 10.0 mi Calm Calm - N/A   Clear
8:13 AM 60.8 °F 55.4 °F 82% 29.91 in 10.0 mi Calm Calm - N/A   Clear
8:33 AM 60.8 °F 55.4 °F 82% 29.92 in 10.0 mi Calm Calm - N/A   Clear
8:53 AM 64.4 °F 55.4 °F 73% 29.92 in 10.0 mi Calm Calm - N/A   Clear
9:13 AM 62.6 °F 53.6 °F 72% 29.93 in 10.0 mi Calm Calm - N/A   Clear
9:33 AM 62.6 °F 55.4 °F 77% 29.93 in 10.0 mi Calm Calm - N/A   Clear
9:53 AM 62.6 °F 53.6 °F 72% 29.94 in 10.0 mi Calm Calm - N/A   Clear
10:13 AM 66.2 °F 51.8 °F 60% 29.94 in 10.0 mi NNE 4.6 mph - N/A   Clear
10:33 AM 66.2 °F 51.8 °F 60% 29.94 in 10.0 mi North 3.5 mph - N/A   Clear
10:53 AM 68.0 °F 51.8 °F 56% 29.95 in 10.0 mi NNE 4.6 mph - N/A   Clear
11:13 AM 69.8 °F 51.8 °F 53% 29.95 in 10.0 mi NNE 4.6 mph - N/A   Clear
11:33 AM 69.8 °F 48.2 °F 46% 29.95 in 10.0 mi North 3.5 mph - N/A   Clear
11:53 AM 69.8 °F 50.0 °F 49% 29.95 in 10.0 mi NNE 3.5 mph - N/A   Clear
12:13 PM 69.8 °F 48.2 °F 46% 29.96 in 10.0 mi NE 4.6 mph - N/A   Clear
12:33 PM 69.8 °F 48.2 °F 46% 29.97 in 10.0 mi NNE 3.5 mph - N/A   Clear
12:53 PM 69.8 °F 46.4 °F 43% 29.97 in 10.0 mi NNE 5.8 mph - N/A   Clear
1:13 PM 69.8 °F 46.4 °F 43% 29.97 in 10.0 mi NNE 3.5 mph - N/A   Clear
1:34 PM 69.8 °F 46.4 °F 43% 29.98 in 10.0 mi NNE 3.5 mph - N/A   Clear
1:53 PM 71.6 °F 46.4 °F 41% 29.98 in 10.0 mi East 5.8 mph - N/A   Clear
2:13 PM 71.6 °F 46.4 °F 41% 29.98 in 10.0 mi NNE 4.6 mph - N/A   Clear
2:33 PM 71.6 °F 46.4 °F 41% 29.97 in 10.0 mi ENE 3.5 mph - N/A   Clear
2:53 PM 71.6 °F 46.4 °F 41% 29.98 in 10.0 mi NE 3.5 mph - N/A   Clear
3:13 PM 71.6 °F 46.4 °F 41% 29.98 in 10.0 mi NE 3.5 mph - N/A   Clear
3:33 PM 71.6 °F 46.4 °F 41% 29.98 in 10.0 mi ENE 4.6 mph - N/A   Clear
3:53 PM 71.6 °F 44.6 °F 38% 29.98 in 10.0 mi North 3.5 mph - N/A   Clear
4:13 PM 71.6 °F 46.4 °F 41% 29.98 in 10.0 mi Calm Calm - N/A   Clear
4:33 PM 71.6 °F 44.6 °F 38% 29.99 in 10.0 mi ENE 4.6 mph - N/A   Clear
4:53 PM 73.4 °F 48.2 °F 41% 29.99 in 10.0 mi Calm Calm - N/A   Clear
5:13 PM 71.6 °F 46.4 °F 41% 29.99 in 10.0 mi Calm Calm - N/A   Clear
5:33 PM 71.6 °F 46.4 °F 41% 29.98 in 10.0 mi Calm Calm - N/A   Clear
5:53 PM 71.6 °F 44.6 °F 38% 29.98 in 10.0 mi Calm Calm - N/A   Clear
6:13 PM 71.6 °F 46.4 °F 41% 29.99 in 10.0 mi Calm Calm - N/A   Clear
6:33 PM 71.6 °F 46.4 °F 41% 29.99 in 10.0 mi Calm Calm - N/A   Clear
6:53 PM 71.6 °F 48.2 °F 43% 29.99 in 10.0 mi Calm Calm - N/A   Clear
7:13 PM 69.8 °F 51.8 °F 53% 29.99 in 10.0 mi Calm Calm - N/A   Clear
7:33 PM 66.2 °F 55.4 °F 68% 29.99 in 10.0 mi Calm Calm - N/A   Clear
7:53 PM 64.4 °F 53.6 °F 68% 29.99 in 10.0 mi Calm Calm - N/A   Clear
8:13 PM 62.6 °F 53.6 °F 72% 29.99 in 10.0 mi Calm Calm - N/A   Clear
8:33 PM 60.8 °F 51.8 °F 72% 29.99 in 10.0 mi Calm Calm - N/A   Clear
8:53 PM 59.0 °F 51.8 °F 77% 29.99 in 10.0 mi Calm Calm - N/A   Clear
9:13 PM 59.0 °F 53.6 °F 82% 29.99 in 10.0 mi Calm Calm - N/A   Clear
9:33 PM 57.2 °F 51.8 °F 82% 30.00 in 10.0 mi Calm Calm - N/A   Clear
9:53 PM 57.2 °F 51.8 °F 82% 30.00 in 10.0 mi Calm Calm - N/A   Clear
10:13 PM 55.4 °F 51.8 °F 88% 30.00 in 10.0 mi Calm Calm - N/A   Clear
10:33 PM 55.4 °F 51.8 °F 88% 30.01 in 10.0 mi Calm Calm - N/A   Clear
10:54 PM 55.4 °F 51.8 °F 88% 30.01 in 10.0 mi Calm Calm - N/A   Clear
11:13 PM 53.6 °F 50.0 °F 88% 30.01 in 10.0 mi Calm Calm - N/A   Clear
11:33 PM 53.6 °F 50.0 °F 88% 30.02 in 10.0 mi Calm Calm - N/A   Clear
11:53 PM 53.6 °F 50.0 °F 88% 30.02 in 10.0 mi Calm Calm - N/A   Clear